• Join FlightAware (Why Join?)
  • Login
  • US Flag 
11:53AM EST


 

Airport Tracker/Info


-or-


 

Live Flight TrackerFlight Track Log ✈ EJA929 ✈ 17-Sep-2013 ✈ KRIC - KIAD

Flight Track Log - Related Links

Times and Time Zones

All times are in EDT time to prevent confusion due to time zone crossing. See the EJA929 flight status page for this flight to view local times or setup timezone preferences in your user account.

Time Position Orientation Groundspeed Altitude Reporting Facility
EDT Latitude Longitude Course Direction KTS MPH feet Rate Location/Type
08:22AM 37.6000 -77.3833 329° Northwest 256 295 3,300  Level Potomac TRACON
08:23AM 37.6667 -77.4167 338° Northwest 257 296 6,200 2,220 Climbing Potomac TRACON
08:24AM 37.7561 -77.4697 335° Northwest 269 310 8,700 1,140 Climbing Washington Center
08:25AM 37.8244 -77.5056 338° Northwest 274 315 9,000 600 Climbing Washington Center
08:26AM 37.8989 -77.5444 338° Northwest 274 315 10,000 480 Climbing Washington Center
08:27AM 37.9708 -77.6069 326° Northwest 286 329 10,000  Level Washington Center
08:28AM 37.9461 -77.7061 252° West 237 273 10,000  Level Washington Center
08:29AM 37.9697 -77.7858 291° West 243 280 10,000  Level Washington Center
08:30AM 38.0417 -77.7222 35° Northeast 166 191 10,000  Level Washington Center
08:31AM 38.0850 -77.6336 58° Northeast 200 230 10,000  Level Washington Center
08:32AM 38.1322 -77.5478 55° Northeast 250 288 10,000  Level Washington Center
08:33AM 38.1775 -77.4592 57° Northeast 277 319 10,000  Level Washington Center
08:34AM 38.2450 -77.4158 27° Northeast 272 313 10,000 -540 Level Washington Center
08:35AM 38.3150 -77.4600 334° Northwest 229 264 9,000 -1,320 Descending Washington Center
08:36AM 38.3878 -77.4725 352° North 245 282 7,500 -1,500 Descending Washington Center
08:37AM 38.4608 -77.4717 North 251 289 6,000 -1,260 Descending Washington Center
08:38AM 38.5317 -77.4708 North 252 290 5,000 -540 Descending Washington Center
08:39AM 38.5964 -77.4669 North 247 284 5,000  Level Washington Center
08:40AM 38.6611 -77.4661 North 235 270 5,000 -300 Level Washington Center
08:41AM 38.7236 -77.4650 North 229 264 4,500 -1,020 Descending Washington Center
08:43AM 38.8167 -77.4333 15° North 231 266 2,700 -1,260 Descending Potomac TRACON
08:44AM 38.8667 -77.4333 360° North 186 214 1,500 -1,020 Descending Potomac TRACON
08:45AM 38.9167 -77.4333 360° North 129 148 700 -840 Descending Potomac TRACON
08:47AM 38.9474 -77.4599 North  Level Estimated
08:54AM 38.9474 -77.4599 195° South  Level Estimated
08:55AM 38.9474 -77.4599 195° South  Level Estimated
08:56AM 38.9474 -77.4599 195° South  Level Estimated